Ellington Field, TX

5:11 PM CDT on June 24, 2018 (GMT -0500)
Ellington

Weather History for KEFD - October, 2017

Change the Weather History Date:

Thursday, October 12, 2017

  Actual Average Record
Temperature  
Mean Temperature 79 °F -  
Max Temperature 89 °F 79 °F 89 °F (2005)
Min Temperature 69 °F 61 °F 55 °F (1996)
Cooling Degree Days 14    
Growing Degree Days 29 (Base 50)    
Moisture  
Dew Point 66 °F    
Average Humidity 63    
Maximum Humidity 89    
Minimum Humidity 46    
Precipitation  
Precipitation 0.00 in - - ()
Sea Level Pressure  
Sea Level Pressure 30.05 in    
Wind  
Wind Speed 2 mph (ENE)    
Max Wind Speed 6 mph    
Max Gust Speed -    
Visibility 10 miles    
Events      
Averages and records for this station are not official NWS values.
T = Trace of Precipitation, MM = Missing Value Source: NWS Daily Summary

Daily Weather History Graph

Daily Weather History Graph

Search for Another Location

Airport or City:

Astronomy

Oct. 12, 2017 Rise Set
Actual Time 7:20 AM CDT 6:53 PM CDT
Civil Twilight 6:56 AM CDT 7:16 PM CDT
Nautical Twilight 6:28 AM CDT 7:44 PM CDT
Astronomical Twilight 6:01 AM CDT 8:12 PM CDT
Moon 12:14 AM CDT (10/12) 2:17 PM CDT (10/12)
Length of Visible Light 12h 20m
Length of Day
11h 32m
Waning Gibbous, 48% of the Moon is Illuminated
Oct 12
Waning Gibbous
Oct 19
New
Oct 27
First Quarter
Nov 4
Full
Nov 10
Last Quarter

Hourly Weather History & Observations

Time (CDT) Temp. Heat Index Dew Point Humidity Pressure Visibility Wind Dir Wind Speed Gust Speed Precip Events Conditions
1:50 AM 71.6 °F - 59.0 °F 64% 30.08 in 10.0 mi Calm Calm - N/A   Clear
3:50 AM 69.8 °F - 60.8 °F 73% 30.05 in 10.0 mi Calm Calm - N/A   Clear
6:50 AM 69.8 °F - 62.6 °F 78% 30.08 in 10.0 mi North 3.5 mph - N/A   Clear
7:50 AM 71.6 °F - 62.6 °F 73% 30.08 in 10.0 mi North 3.5 mph - N/A   Clear
8:50 AM 71.6 °F - 62.6 °F 73% 30.11 in 10.0 mi North 3.5 mph - N/A   Clear
9:50 AM 77.0 °F - 62.6 °F 61% 30.11 in 10.0 mi NE 4.6 mph - N/A   Clear
10:50 AM 84.2 °F 85.0 °F 62.6 °F 48% 30.11 in 10.0 mi Calm Calm - N/A   Clear
11:50 AM 86.0 °F 87.3 °F 64.4 °F 48% 30.10 in 10.0 mi ENE 3.5 mph - N/A   Clear
12:50 PM 89.6 °F 92.2 °F 66.2 °F 46% 30.08 in 10.0 mi ESE 5.8 mph - N/A   Clear
1:50 PM 87.8 °F 90.4 °F 66.2 °F 49% 30.02 in 10.0 mi Variable 3.5 mph - N/A   Partly Cloudy
3:50 PM 89.6 °F 93.4 °F 68.0 °F 49% 30.01 in 10.0 mi Variable 5.8 mph - N/A   Partly Cloudy
4:50 PM 87.8 °F 91.4 °F 68.0 °F 52% 30.00 in 10.0 mi ESE 5.8 mph - N/A   Partly Cloudy
5:50 PM 87.8 °F 91.4 °F 68.0 °F 52% 30.00 in 10.0 mi East 5.8 mph - N/A   Partly Cloudy
6:50 PM 84.2 °F 87.3 °F 68.0 °F 58% 30.00 in 10.0 mi East 4.6 mph - N/A   Partly Cloudy
7:50 PM 80.6 °F 83.2 °F 68.0 °F 65% 30.02 in 10.0 mi ESE 5.8 mph - N/A   Clear
8:50 PM 80.6 °F 83.2 °F 68.0 °F 65% 30.04 in 10.0 mi SSE 4.6 mph - N/A   Clear
9:50 PM 78.8 °F - 68.0 °F 69% 30.05 in 10.0 mi Calm Calm - N/A   Clear
10:50 PM 78.8 °F - 73.4 °F 83% 30.05 in 10.0 mi Calm Calm - N/A   Clear
11:50 PM 77.0 °F - 73.4 °F 89% 30.05 in 10.0 mi Calm Calm - N/A   Clear